Powrót do katalogu

COSMOS 2251 DEB

AktywnyLEO
NORAD 38481·DEBRIS·🇷🇺 Russia

Wystrzelony Jun 16, 1993 z Plesetsk Cosmodrome

Loading…

Następne Przeloty (najbliższe 24 godziny)

TLE

Starzejące sięSource: Space-Track

Epoka: Sep 9, 2026, 08:19 UTC

1 38481U 93036BTR 26252.34660557  .00000919  00000-0  55751-3 0  9993
2 38481  73.9291 259.4575 0225128 146.3633 215.2026 13.95843356628359

Śledź COSMOS 2251 DEB w czasie rzeczywistym z AllMySat

Download on the App Store